User: anonymous   Login
Location: Unspecified
(0.0000°N, 0.0000°E)
Time: 18:53:36
(UTC+00:00)
Language:

UME 1 - Orbit

View from above orbital plane
View from above orbital plane
View from above satellite
View from above satellite

Ground track
Ground track

The orbit data is extracted from the following two-line orbital elements,

1  8709U 76019A   17145.63187325 +.00000013 +00000-0 +72422-4 0  9995
2  8709 069.6732 191.2833 0013530 277.9206 228.1982 13.71387437063297
Epoch (UTC): 25 May 2017 15:09:53
Eccentricity: 0.0013530
inclination: 69.6732°
perigee height: 984 km
apogee height: 1004 km
right ascension of ascending node: 191.2833°
argument of perigee: 277.9206°
revolutions per day: 13.71387437
mean anomaly at epoch: 228.1982°
orbit number at epoch: 6329

The dashed part of the orbit path shows where the satellite is in the earth's shadow,  

DLR